Overview Statistics Trail Chart Weather Telemetry Raw packets
 

This is the latest recevied weather packets stored in our database for station/object DC5DM-13. If no packets are shown the sender has not sent any weather packets the latest 10 day(s).

<< 53 54 55 56 57 58 >>
Time Temp. Humidity Pressure Rain* Wind** Luminosity Snow
1787754673 23.33° C 69% 1017.2 hPa 0 mm - - -
1787754042 22.78° C 70% 1017.3 hPa 0 mm - - -
1787753473 23.89° C 67% 1017.1 hPa 0 mm - - -
1787752843 22.22° C 73% 1017.2 hPa 0 mm - - -
1787752273 22.22° C 72% 1017.4 hPa 0 mm - - -
1787751642 22.78° C 69% 1017.3 hPa 0 mm - - -
1787751073 23.33° C 67% 1017.3 hPa 0 mm - - -
1787750443 22.22° C 72% 1017.3 hPa 0 mm - - -
1787749874 21.67° C 71% 1017.3 hPa 0 mm - - -
1787749242 23.33° C 68% 1017.3 hPa 0 mm - - -
1787748675 23.89° C 65% 1017.2 hPa 0 mm - - -
1787748044 23.89° C 69% 1017.5 hPa 0 mm - - -
1787747473 22.22° C 70% 1017.5 hPa 0 mm - - -
1787746843 21.67° C 72% 1017.5 hPa 0 mm - - -
1787746274 22.22° C 71% 1017.5 hPa 0 mm - - -
1787745644 21.67° C 72% 1017.8 hPa 0 mm - - -
1787745073 20.56° C 77% 1017.9 hPa 0 mm - - -
1787744443 20° C 77% 1018.1 hPa 0 mm - - -
1787743874 19.44° C 79% 1017.8 hPa 0 mm - - -
1787743243 20° C 77% 1018.1 hPa 0 mm - - -
1787742674 20° C 80% 1018 hPa 0 mm - - -
1787742043 19.44° C 81% 1018 hPa 0 mm - - -
1787741473 18.33° C 83% 1018.1 hPa 0 mm - - -
1787740844 18.33° C 83% 1018.2 hPa 0 mm - - -
1787740266 18.33° C 84% 1018.1 hPa 0 mm - - -

* Rain latest hour (hover to see other rain measurements)
** Current wind speed in m/s (hover to see current wind gust speed)